contact:dominique.lefevre@mio.osupytheas.fr, maurice.libes@osupytheas.fr, didier.mallarino@osupytheas.fr
Project:EMSO http://www.emso-fr.org/EMSO-France
Depth: 2436.0 m
Title:EMSO Ligure Ouest : Data MII capteur MICROCAT
DateTime_Computer,Latitude,Longitude,Temperature,Conductivity,Pressure,DateTime_Instrument
DateTime_Computer,Latitude,Longitude,degC,S m-1,dbar,DateTime_Instrument
2020-07-07T00:01:31Z,42.805,6.029,13.2971,4.59972,2470.077,2020-7-07T02:02:17Z
2020-07-07T00:04:34Z,42.805,6.029,13.2969,4.59973,2470.063,2020-7-07T02:05:20Z
2020-07-07T00:07:37Z,42.805,6.029,13.2971,4.59973,2470.087,2020-7-07T02:08:23Z
2020-07-07T00:10:40Z,42.805,6.029,13.2969,4.59975,2470.063,2020-7-07T02:11:26Z
2020-07-07T00:13:43Z,42.805,6.029,13.2971,4.59974,2470.04,2020-7-07T02:14:30Z
2020-07-07T00:16:47Z,42.805,6.029,13.2974,4.59973,2470.053,2020-7-07T02:17:33Z
2020-07-07T00:19:50Z,42.805,6.029,13.2968,4.59976,2470.077,2020-7-07T02:20:36Z
2020-07-07T00:22:53Z,42.805,6.029,13.2970,4.59973,2470.04,2020-7-07T02:23:39Z
2020-07-07T00:25:56Z,42.805,6.029,13.2969,4.59971,2470.03,2020-7-07T02:26:42Z
2020-07-07T00:29:00Z,42.805,6.029,13.2967,4.59976,2470.077,2020-7-07T02:29:46Z
2020-07-07T00:32:03Z,42.805,6.029,13.2971,4.59973,2470.053,2020-7-07T02:32:49Z
2020-07-07T00:35:06Z,42.805,6.029,13.2972,4.59973,2470.077,2020-7-07T02:35:52Z
2020-07-07T00:38:09Z,42.805,6.029,13.2971,4.59972,2470.04,2020-7-07T02:38:55Z
2020-07-07T00:41:13Z,42.805,6.029,13.2969,4.59978,2470.077,2020-7-07T02:41:59Z
2020-07-07T00:44:16Z,42.805,6.029,13.2968,4.59979,2470.053,2020-7-07T02:45:02Z
2020-07-07T00:47:19Z,42.805,6.029,13.2967,4.59973,2470.053,2020-7-07T02:48:05Z
2020-07-07T00:50:22Z,42.805,6.029,13.2971,4.59976,2470.04,2020-7-07T02:51:08Z
2020-07-07T00:53:26Z,42.805,6.029,13.2966,4.59972,2470.04,2020-7-07T02:54:12Z
2020-07-07T00:56:29Z,42.805,6.029,13.2968,4.59975,2470.053,2020-7-07T02:57:15Z
2020-07-07T00:59:32Z,42.805,6.029,13.2973,4.59973,2470.017,2020-7-07T03:00:18Z
2020-07-07T01:02:35Z,42.805,6.029,13.2972,4.59973,2470.017,2020-7-07T03:03:22Z
2020-07-07T01:05:39Z,42.805,6.029,13.2968,4.59976,2469.993,2020-7-07T03:06:25Z
2020-07-07T01:08:42Z,42.805,6.029,13.2967,4.59972,2470.007,2020-7-07T03:09:28Z
2020-07-07T01:11:45Z,42.805,6.029,13.2968,4.59972,2469.993,2020-7-07T03:12:31Z
2020-07-07T01:14:48Z,42.805,6.029,13.2967,4.59973,2470.017,2020-7-07T03:15:34Z
2020-07-07T01:17:52Z,42.805,6.029,13.2967,4.59973,2470.03,2020-7-07T03:18:38Z
2020-07-07T01:20:55Z,42.805,6.029,13.2971,4.59975,2470.007,2020-7-07T03:21:41Z
2020-07-07T01:23:58Z,42.805,6.029,13.2973,4.59971,2470.03,2020-7-07T03:24:44Z
2020-07-07T01:27:01Z,42.805,6.029,13.2968,4.59972,2469.993,2020-7-07T03:27:47Z
2020-07-07T01:30:04Z,42.805,6.029,13.2969,4.59971,2470.017,2020-7-07T03:30:51Z
2020-07-07T01:33:08Z,42.805,6.029,13.2969,4.59974,2470.003,2020-7-07T03:33:54Z
2020-07-07T01:36:11Z,42.805,6.029,13.2968,4.59971,2470.017,2020-7-07T03:36:57Z
2020-07-07T01:39:14Z,42.805,6.029,13.2968,4.59970,2469.993,2020-7-07T03:40:00Z
2020-07-07T01:42:18Z,42.805,6.029,13.2967,4.59976,2469.993,2020-7-07T03:43:04Z
2020-07-07T01:45:21Z,42.805,6.029,13.2967,4.59978,2470.007,2020-7-07T03:46:07Z
2020-07-07T01:48:24Z,42.805,6.029,13.2971,4.59976,2469.993,2020-7-07T03:49:10Z
2020-07-07T01:51:27Z,42.805,6.029,13.2968,4.59976,2470.007,2020-7-07T03:52:13Z
2020-07-07T01:54:30Z,42.805,6.029,13.2981,4.59972,2469.96,2020-7-07T03:55:17Z
2020-07-07T01:57:34Z,42.805,6.029,13.2974,4.59971,2470.007,2020-7-07T03:58:20Z
2020-07-07T02:00:37Z,42.805,6.029,13.2976,4.59971,2469.993,2020-7-07T04:01:23Z
2020-07-07T02:03:40Z,42.805,6.029,13.2983,4.59972,2469.984,2020-7-07T04:04:26Z
2020-07-07T02:06:43Z,42.805,6.029,13.2972,4.59973,2470.017,2020-7-07T04:07:30Z
2020-07-07T02:09:47Z,42.805,6.029,13.2971,4.59971,2469.923,2020-7-07T04:10:33Z
2020-07-07T02:12:50Z,42.805,6.029,13.2967,4.59971,2469.97,2020-7-07T04:13:36Z
2020-07-07T02:15:53Z,42.805,6.029,13.2968,4.59974,2469.947,2020-7-07T04:16:39Z
2020-07-07T02:18:57Z,42.805,6.029,13.2968,4.59974,2469.947,2020-7-07T04:19:43Z
2020-07-07T02:22:00Z,42.805,6.029,13.2971,4.59972,2469.984,2020-7-07T04:22:46Z
2020-07-07T02:25:03Z,42.805,6.029,13.2972,4.59973,2470.017,2020-7-07T04:25:49Z
2020-07-07T02:28:06Z,42.805,6.029,13.2967,4.59981,2469.97,2020-7-07T04:28:52Z
2020-07-07T02:31:09Z,42.805,6.029,13.2973,4.59976,2469.993,2020-7-07T04:31:56Z
2020-07-07T02:34:13Z,42.805,6.029,13.2969,4.59972,2469.984,2020-7-07T04:34:59Z
2020-07-07T02:37:16Z,42.805,6.029,13.2974,4.59971,2469.993,2020-7-07T04:38:02Z
2020-07-07T02:40:19Z,42.805,6.029,13.2978,4.59970,2469.947,2020-7-07T04:41:06Z
2020-07-07T02:43:23Z,42.805,6.029,13.2976,4.59971,2469.947,2020-7-07T04:44:09Z
2020-07-07T02:46:26Z,42.805,6.029,13.2973,4.59973,2469.984,2020-7-07T04:47:12Z
2020-07-07T02:49:29Z,42.805,6.029,13.2972,4.59971,2469.97,2020-7-07T04:50:15Z
2020-07-07T02:52:32Z,42.805,6.029,13.2968,4.59971,2469.984,2020-7-07T04:53:18Z
2020-07-07T02:55:35Z,42.805,6.029,13.2968,4.59971,2469.947,2020-7-07T04:56:22Z
2020-07-07T02:58:39Z,42.805,6.029,13.2971,4.59973,2469.947,2020-7-07T04:59:25Z
2020-07-07T03:01:42Z,42.805,6.029,13.2971,4.59981,2469.984,2020-7-07T05:02:28Z
2020-07-07T03:04:45Z,42.805,6.029,13.2968,4.59973,2469.97,2020-7-07T05:05:31Z
2020-07-07T03:07:49Z,42.805,6.029,13.2971,4.59971,2469.947,2020-7-07T05:08:35Z
2020-07-07T03:10:52Z,42.805,6.029,13.2968,4.59978,2469.947,2020-7-07T05:11:38Z
2020-07-07T03:13:55Z,42.805,6.029,13.2971,4.59971,2469.96,2020-7-07T05:14:41Z
2020-07-07T03:16:58Z,42.805,6.029,13.2971,4.59980,2469.923,2020-7-07T05:17:45Z
2020-07-07T03:20:02Z,42.805,6.029,13.2970,4.59973,2469.993,2020-7-07T05:20:48Z
2020-07-07T03:23:05Z,42.805,6.029,13.2972,4.59976,2469.984,2020-7-07T05:23:51Z
2020-07-07T03:26:08Z,42.805,6.029,13.2968,4.59976,2470.007,2020-7-07T05:26:54Z
2020-07-07T03:29:11Z,42.805,6.029,13.2969,4.59973,2469.947,2020-7-07T05:29:57Z
2020-07-07T03:32:15Z,42.805,6.029,13.2970,4.59974,2469.947,2020-7-07T05:33:01Z
2020-07-07T03:35:18Z,42.805,6.029,13.2970,4.59986,2469.984,2020-7-07T05:36:04Z
2020-07-07T03:38:21Z,42.805,6.029,13.2967,4.59978,2469.947,2020-7-07T05:39:07Z
2020-07-07T03:41:24Z,42.805,6.029,13.2971,4.59999,2469.96,2020-7-07T05:42:10Z
2020-07-07T03:44:27Z,42.805,6.029,13.2970,4.60000,2469.933,2020-7-07T05:45:13Z
2020-07-07T03:47:31Z,42.805,6.029,13.2971,4.59975,2469.96,2020-7-07T05:48:17Z
2020-07-07T03:50:34Z,42.805,6.029,13.2967,4.59971,2469.96,2020-7-07T05:51:20Z
2020-07-07T03:53:38Z,42.805,6.029,13.2967,4.59974,2469.947,2020-7-07T05:54:24Z
2020-07-07T03:56:41Z,42.805,6.029,13.2968,4.59974,2469.993,2020-7-07T05:57:27Z
2020-07-07T03:59:44Z,42.805,6.029,13.2974,4.59973,2469.97,2020-7-07T06:00:30Z
2020-07-07T04:02:47Z,42.805,6.029,13.2971,4.59973,2469.947,2020-7-07T06:03:33Z
2020-07-07T04:05:50Z,42.805,6.029,13.2972,4.59976,2469.96,2020-7-07T06:06:37Z
2020-07-07T04:08:54Z,42.805,6.029,13.2971,4.59976,2469.97,2020-7-07T06:09:40Z
2020-07-07T04:11:57Z,42.805,6.029,13.2969,4.59972,2469.984,2020-7-07T06:12:43Z
2020-07-07T04:15:00Z,42.805,6.029,13.2968,4.59980,2469.97,2020-7-07T06:15:46Z
2020-07-07T04:18:03Z,42.805,6.029,13.2969,4.59976,2469.97,2020-7-07T06:18:49Z
2020-07-07T04:21:07Z,42.805,6.029,13.2967,4.59995,2470.007,2020-7-07T06:21:53Z
2020-07-07T04:24:10Z,42.805,6.029,13.2967,4.59981,2469.97,2020-7-07T06:24:56Z
2020-07-07T04:27:13Z,42.805,6.029,13.2973,4.59979,2469.96,2020-7-07T06:27:59Z
2020-07-07T04:30:16Z,42.805,6.029,13.2968,4.59981,2469.97,2020-7-07T06:31:02Z
2020-07-07T04:33:19Z,42.805,6.029,13.2973,4.59978,2469.97,2020-7-07T06:34:06Z
2020-07-07T04:36:23Z,42.805,6.029,13.2969,4.59986,2469.97,2020-7-07T06:37:09Z
2020-07-07T04:39:26Z,42.805,6.029,13.2967,4.59979,2469.984,2020-7-07T06:40:12Z
2020-07-07T04:42:29Z,42.805,6.029,13.2974,4.59991,2470.007,2020-7-07T06:43:15Z
2020-07-07T04:45:32Z,42.805,6.029,13.2969,4.59976,2469.984,2020-7-07T06:46:19Z
2020-07-07T04:48:36Z,42.805,6.029,13.2970,4.59983,2469.984,2020-7-07T06:49:22Z
2020-07-07T04:51:39Z,42.805,6.029,13.2971,4.59988,2470.007,2020-7-07T06:52:25Z
2020-07-07T04:54:42Z,42.805,6.029,13.2970,4.60009,2469.993,2020-7-07T06:55:28Z
2020-07-07T04:57:45Z,42.805,6.029,13.2968,4.60020,2469.97,2020-7-07T06:58:31Z
2020-07-07T05:00:49Z,42.805,6.029,13.2970,4.60007,2470.007,2020-7-07T07:01:35Z
2020-07-07T05:03:52Z,42.805,6.029,13.2970,4.59985,2469.984,2020-7-07T07:04:38Z
2020-07-07T05:06:55Z,42.805,6.029,13.2972,4.59982,2469.993,2020-7-07T07:07:41Z
2020-07-07T05:09:59Z,42.805,6.029,13.2975,4.59976,2469.984,2020-7-07T07:10:45Z
2020-07-07T05:13:02Z,42.805,6.029,13.2969,4.59977,2469.993,2020-7-07T07:13:48Z
2020-07-07T05:16:05Z,42.805,6.029,13.2968,4.59981,2470.007,2020-7-07T07:16:51Z
2020-07-07T05:19:08Z,42.805,6.029,13.2968,4.59985,2470.007,2020-7-07T07:19:54Z
2020-07-07T05:22:11Z,42.805,6.029,13.2970,4.59983,2469.97,2020-7-07T07:22:58Z
2020-07-07T05:25:15Z,42.805,6.029,13.2967,4.59980,2470.017,2020-7-07T07:26:01Z
2020-07-07T05:28:18Z,42.805,6.029,13.2967,4.59981,2469.993,2020-7-07T07:29:04Z
2020-07-07T05:31:21Z,42.805,6.029,13.2975,4.60036,2470.007,2020-7-07T07:32:07Z
2020-07-07T05:34:24Z,42.805,6.029,13.2984,4.60010,2469.97,2020-7-07T07:35:10Z
2020-07-07T05:37:28Z,42.805,6.029,13.2989,4.59999,2469.993,2020-7-07T07:38:14Z
2020-07-07T05:40:31Z,42.805,6.029,13.2991,4.59983,2470.017,2020-7-07T07:41:17Z
2020-07-07T05:43:34Z,42.805,6.029,13.3007,4.59979,2470.007,2020-7-07T07:44:20Z
2020-07-07T05:46:37Z,42.805,6.029,13.3003,4.59986,2470.017,2020-7-07T07:47:23Z
2020-07-07T05:49:41Z,42.805,6.029,13.3011,4.59997,2469.993,2020-7-07T07:50:27Z
2020-07-07T05:52:44Z,42.805,6.029,13.3015,4.59996,2470.053,2020-7-07T07:53:30Z
2020-07-07T05:55:47Z,42.805,6.029,13.3018,4.59981,2470.017,2020-7-07T07:56:33Z
2020-07-07T05:58:51Z,42.805,6.029,13.3030,4.59983,2470.03,2020-7-07T07:59:37Z
2020-07-07T06:01:54Z,42.805,6.029,13.3029,4.59985,2470.04,2020-7-07T08:02:40Z
2020-07-07T06:04:57Z,42.805,6.029,13.3009,4.60019,2469.993,2020-7-07T08:05:43Z
2020-07-07T06:08:00Z,42.805,6.029,13.3011,4.60025,2470.017,2020-7-07T08:08:46Z
2020-07-07T06:11:03Z,42.805,6.029,13.3029,4.60024,2470.03,2020-7-07T08:11:50Z
2020-07-07T06:14:07Z,42.805,6.029,13.3041,4.60049,2470.017,2020-7-07T08:14:53Z
2020-07-07T06:17:10Z,42.805,6.029,13.3036,4.60046,2470.017,2020-7-07T08:17:56Z
2020-07-07T06:20:13Z,42.805,6.029,13.3019,4.60038,2470.03,2020-7-07T08:20:59Z
2020-07-07T06:23:17Z,42.805,6.029,13.3031,4.60019,2470.03,2020-7-07T08:24:03Z
2020-07-07T06:26:20Z,42.805,6.029,13.3031,4.59999,2470.04,2020-7-07T08:27:06Z
2020-07-07T06:29:23Z,42.805,6.029,13.3054,4.60026,2470.077,2020-7-07T08:30:09Z
2020-07-07T06:32:26Z,42.805,6.029,13.3045,4.60036,2470.03,2020-7-07T08:33:12Z
2020-07-07T06:35:29Z,42.805,6.029,13.3047,4.60021,2470.063,2020-7-07T08:36:16Z
2020-07-07T06:38:33Z,42.805,6.029,13.3030,4.60016,2470.03,2020-7-07T08:39:19Z
2020-07-07T06:41:36Z,42.805,6.029,13.3033,4.60054,2470.03,2020-7-07T08:42:22Z
2020-07-07T06:44:39Z,42.805,6.029,13.3028,4.60010,2470.04,2020-7-07T08:45:25Z
2020-07-07T06:47:42Z,42.805,6.029,13.3034,4.60017,2470.063,2020-7-07T08:48:28Z
2020-07-07T06:50:46Z,42.805,6.029,13.3032,4.60005,2470.077,2020-7-07T08:51:32Z
2020-07-07T06:53:49Z,42.805,6.029,13.3053,4.60003,2470.04,2020-7-07T08:54:35Z
2020-07-07T06:56:52Z,42.805,6.029,13.2998,4.60003,2470.063,2020-7-07T08:57:38Z
2020-07-07T06:59:55Z,42.805,6.029,13.3007,4.60028,2470.077,2020-7-07T09:00:41Z
2020-07-07T07:02:58Z,42.805,6.029,13.3017,4.60021,2470.053,2020-7-07T09:03:45Z
2020-07-07T07:06:02Z,42.805,6.029,13.3024,4.60025,2470.1,2020-7-07T09:06:48Z
2020-07-07T07:09:05Z,42.805,6.029,13.3041,4.59999,2470.063,2020-7-07T09:09:51Z
2020-07-07T07:12:08Z,42.805,6.029,13.3035,4.60014,2470.053,2020-7-07T09:12:54Z
2020-07-07T07:15:11Z,42.805,6.029,13.3014,4.60019,2470.077,2020-7-07T09:15:58Z
2020-07-07T07:18:15Z,42.805,6.029,13.3019,4.60003,2470.063,2020-7-07T09:19:01Z
2020-07-07T07:21:18Z,42.805,6.029,13.3025,4.60015,2470.077,2020-7-07T09:22:04Z
2020-07-07T07:24:21Z,42.805,6.029,13.3026,4.60027,2470.077,2020-7-07T09:25:07Z
2020-07-07T07:27:24Z,42.805,6.029,13.3033,4.60029,2470.063,2020-7-07T09:28:10Z
2020-07-07T07:30:28Z,42.805,6.029,13.3029,4.60008,2470.077,2020-7-07T09:31:14Z
2020-07-07T07:33:31Z,42.805,6.029,13.3050,4.60011,2470.077,2020-7-07T09:34:17Z
2020-07-07T07:36:34Z,42.805,6.029,13.3063,4.60009,2470.063,2020-7-07T09:37:20Z
2020-07-07T07:39:37Z,42.805,6.029,13.3068,4.60041,2470.077,2020-7-07T09:40:23Z
2020-07-07T07:42:41Z,42.805,6.029,13.3076,4.60002,2470.1,2020-7-07T09:43:27Z
2020-07-07T07:45:44Z,42.805,6.029,13.3063,4.60024,2470.063,2020-7-07T09:46:30Z
2020-07-07T07:48:47Z,42.805,6.029,13.3046,4.59994,2470.063,2020-7-07T09:49:33Z
2020-07-07T07:51:50Z,42.805,6.029,13.3012,4.59998,2470.063,2020-7-07T09:52:36Z
2020-07-07T07:54:54Z,42.805,6.029,13.3038,4.60029,2470.1,2020-7-07T09:55:40Z
2020-07-07T07:57:57Z,42.805,6.029,13.3026,4.60018,2470.077,2020-7-07T09:58:43Z
2020-07-07T08:01:00Z,42.805,6.029,13.3008,4.60029,2470.053,2020-7-07T10:01:46Z
2020-07-07T08:04:04Z,42.805,6.029,13.3021,4.60007,2470.077,2020-7-07T10:04:50Z
2020-07-07T08:07:07Z,42.805,6.029,13.3047,4.60002,2470.1,2020-7-07T10:07:53Z
2020-07-07T08:10:10Z,42.805,6.029,13.3043,4.60010,2470.087,2020-7-07T10:10:56Z
2020-07-07T08:13:13Z,42.805,6.029,13.3032,4.60016,2470.063,2020-7-07T10:13:59Z
2020-07-07T08:16:17Z,42.805,6.029,13.3025,4.60023,2470.077,2020-7-07T10:17:03Z
2020-07-07T08:19:20Z,42.805,6.029,13.3034,4.60009,2470.077,2020-7-07T10:20:06Z
2020-07-07T08:22:23Z,42.805,6.029,13.3054,4.59999,2470.077,2020-7-07T10:23:09Z
2020-07-07T08:25:26Z,42.805,6.029,13.3051,4.60003,2470.087,2020-7-07T10:26:13Z
2020-07-07T08:28:30Z,42.805,6.029,13.3034,4.60011,2470.077,2020-7-07T10:29:16Z
2020-07-07T08:31:33Z,42.805,6.029,13.3036,4.60001,2470.063,2020-7-07T10:32:19Z
2020-07-07T08:34:36Z,42.805,6.029,13.3038,4.60011,2470.063,2020-7-07T10:35:22Z
2020-07-07T08:37:39Z,42.805,6.029,13.3035,4.60004,2470.087,2020-7-07T10:38:26Z
2020-07-07T08:40:43Z,42.805,6.029,13.3037,4.60002,2470.053,2020-7-07T10:41:29Z
2020-07-07T08:43:46Z,42.805,6.029,13.3050,4.60005,2470.077,2020-7-07T10:44:32Z
2020-07-07T08:46:49Z,42.805,6.029,13.3036,4.60003,2470.063,2020-7-07T10:47:35Z
2020-07-07T08:49:52Z,42.805,6.029,13.3036,4.59996,2470.1,2020-7-07T10:50:39Z
2020-07-07T08:52:56Z,42.805,6.029,13.3048,4.60031,2470.063,2020-7-07T10:53:42Z
2020-07-07T08:55:59Z,42.805,6.029,13.3046,4.60014,2470.04,2020-7-07T10:56:45Z
2020-07-07T08:59:02Z,42.805,6.029,13.3037,4.60020,2470.063,2020-7-07T10:59:49Z
2020-07-07T09:02:06Z,42.805,6.029,13.3054,4.60001,2470.077,2020-7-07T11:02:52Z
2020-07-07T09:05:09Z,42.805,6.029,13.3031,4.59999,2470.063,2020-7-07T11:05:55Z
2020-07-07T09:08:12Z,42.805,6.029,13.3025,4.60026,2470.077,2020-7-07T11:08:58Z
2020-07-07T09:11:15Z,42.805,6.029,13.3035,4.60016,2470.053,2020-7-07T11:12:01Z
2020-07-07T09:14:19Z,42.805,6.029,13.3029,4.60025,2470.063,2020-7-07T11:15:05Z
2020-07-07T09:17:22Z,42.805,6.029,13.3027,4.60029,2470.053,2020-7-07T11:18:08Z
2020-07-07T09:20:25Z,42.805,6.029,13.3031,4.60007,2470.063,2020-7-07T11:21:11Z
2020-07-07T09:23:28Z,42.805,6.029,13.3061,4.60009,2470.1,2020-7-07T11:24:14Z
2020-07-07T09:26:32Z,42.805,6.029,13.3044,4.60014,2470.077,2020-7-07T11:27:18Z
2020-07-07T09:29:35Z,42.805,6.029,13.3031,4.60011,2470.1,2020-7-07T11:30:21Z
2020-07-07T09:32:38Z,42.805,6.029,13.3025,4.60014,2470.063,2020-7-07T11:33:24Z
2020-07-07T09:35:41Z,42.805,6.029,13.3037,4.60014,2470.077,2020-7-07T11:36:27Z
2020-07-07T09:38:45Z,42.805,6.029,13.3032,4.60016,2470.077,2020-7-07T11:39:31Z
2020-07-07T09:41:48Z,42.805,6.029,13.3025,4.60039,2470.077,2020-7-07T11:42:34Z
2020-07-07T09:44:51Z,42.805,6.029,13.3023,4.60016,2470.077,2020-7-07T11:45:37Z
2020-07-07T09:47:54Z,42.805,6.029,13.3023,4.60013,2470.053,2020-7-07T11:48:41Z
2020-07-07T09:50:58Z,42.805,6.029,13.3015,4.60007,2470.053,2020-7-07T11:51:44Z
2020-07-07T09:54:01Z,42.805,6.029,13.3012,4.60014,2470.077,2020-7-07T11:54:47Z
2020-07-07T09:57:04Z,42.805,6.029,13.3031,4.60007,2470.063,2020-7-07T11:57:50Z
2020-07-07T10:00:07Z,42.805,6.029,13.3032,4.60017,2470.077,2020-7-07T12:00:53Z
2020-07-07T10:03:11Z,42.805,6.029,13.3022,4.60003,2470.053,2020-7-07T12:03:57Z
2020-07-07T10:06:14Z,42.805,6.029,13.3014,4.60012,2470.077,2020-7-07T12:07:00Z
2020-07-07T10:09:17Z,42.805,6.029,13.3011,4.60008,2470.077,2020-7-07T12:10:03Z
2020-07-07T10:12:21Z,42.805,6.029,13.3016,4.60008,2470.017,2020-7-07T12:13:07Z
2020-07-07T10:15:24Z,42.805,6.029,13.3014,4.60006,2470.053,2020-7-07T12:16:10Z
2020-07-07T10:18:27Z,42.805,6.029,13.3029,4.60010,2470.017,2020-7-07T12:19:13Z
2020-07-07T10:21:30Z,42.805,6.029,13.3024,4.60009,2470.053,2020-7-07T12:22:16Z
2020-07-07T10:24:33Z,42.805,6.029,13.3021,4.59996,2470.053,2020-7-07T12:25:20Z
2020-07-07T10:27:37Z,42.805,6.029,13.3017,4.60003,2470.04,2020-7-07T12:28:23Z
2020-07-07T10:30:40Z,42.805,6.029,13.3026,4.60007,2470.053,2020-7-07T12:31:26Z
2020-07-07T10:33:43Z,42.805,6.029,13.3014,4.60021,2470.03,2020-7-07T12:34:29Z
2020-07-07T10:36:46Z,42.805,6.029,13.3019,4.60009,2470.04,2020-7-07T12:37:33Z
2020-07-07T10:39:50Z,42.805,6.029,13.3029,4.60008,2470.04,2020-7-07T12:40:36Z
2020-07-07T10:42:53Z,42.805,6.029,13.3014,4.60001,2470.017,2020-7-07T12:43:39Z
2020-07-07T10:45:56Z,42.805,6.029,13.2996,4.60003,2470.077,2020-7-07T12:46:42Z
2020-07-07T10:48:59Z,42.805,6.029,13.3006,4.60013,2470.03,2020-7-07T12:49:45Z
2020-07-07T10:52:03Z,42.805,6.029,13.3006,4.60012,2470.053,2020-7-07T12:52:49Z
2020-07-07T10:55:06Z,42.805,6.029,13.3031,4.60008,2470.017,2020-7-07T12:55:52Z
2020-07-07T10:58:09Z,42.805,6.029,13.3009,4.60011,2470.063,2020-7-07T12:58:55Z
2020-07-07T11:01:12Z,42.805,6.029,13.3023,4.59996,2469.993,2020-7-07T13:01:58Z
2020-07-07T11:04:16Z,42.805,6.029,13.3021,4.60019,2470.04,2020-7-07T13:05:02Z
2020-07-07T11:07:19Z,42.805,6.029,13.3010,4.60003,2469.993,2020-7-07T13:08:05Z
2020-07-07T11:10:22Z,42.805,6.029,13.3019,4.60015,2470.03,2020-7-07T13:11:09Z
2020-07-07T11:13:26Z,42.805,6.029,13.3007,4.60006,2470.007,2020-7-07T13:14:12Z
2020-07-07T11:16:29Z,42.805,6.029,13.3009,4.60011,2470.04,2020-7-07T13:17:15Z
2020-07-07T11:19:33Z,42.805,6.029,13.3009,4.60011,2470.017,2020-7-07T13:20:19Z
2020-07-07T11:22:36Z,42.805,6.029,13.3016,4.60009,2469.993,2020-7-07T13:23:22Z
2020-07-07T11:25:39Z,42.805,6.029,13.2990,4.60019,2470.007,2020-7-07T13:26:25Z
2020-07-07T11:28:42Z,42.805,6.029,13.3019,4.60022,2470.017,2020-7-07T13:29:28Z
2020-07-07T11:31:46Z,42.805,6.029,13.2994,4.60006,2470.017,2020-7-07T13:32:32Z
2020-07-07T11:34:49Z,42.805,6.029,13.3000,4.60011,2470.007,2020-7-07T13:35:35Z
2020-07-07T11:37:52Z,42.805,6.029,13.3019,4.60014,2470.04,2020-7-07T13:38:38Z
2020-07-07T11:40:55Z,42.805,6.029,13.3004,4.59997,2470.017,2020-7-07T13:41:41Z
2020-07-07T11:43:58Z,42.805,6.029,13.3000,4.60003,2469.993,2020-7-07T13:44:45Z
2020-07-07T11:47:02Z,42.805,6.029,13.3006,4.59999,2470.017,2020-7-07T13:47:48Z
2020-07-07T11:50:05Z,42.805,6.029,13.2995,4.59999,2469.984,2020-7-07T13:50:51Z
2020-07-07T11:53:08Z,42.805,6.029,13.3004,4.60008,2469.993,2020-7-07T13:53:54Z
2020-07-07T11:56:11Z,42.805,6.029,13.2984,4.60004,2470.007,2020-7-07T13:56:58Z
2020-07-07T11:59:15Z,42.805,6.029,13.3004,4.60003,2469.97,2020-7-07T14:00:01Z
2020-07-07T12:02:18Z,42.805,6.029,13.3004,4.60057,2469.993,2020-7-07T14:03:04Z
2020-07-07T12:05:21Z,42.805,6.029,13.3029,4.60006,2469.97,2020-7-07T14:06:08Z
2020-07-07T12:08:25Z,42.805,6.029,13.2975,4.59999,2470.007,2020-7-07T14:09:11Z
2020-07-07T12:11:28Z,42.805,6.029,13.3004,4.60024,2469.97,2020-7-07T14:12:15Z
2020-07-07T12:14:32Z,42.805,6.029,13.2989,4.60024,2469.97,2020-7-07T14:15:18Z
2020-07-07T12:17:35Z,42.805,6.029,13.2982,4.60001,2469.984,2020-7-07T14:18:21Z
2020-07-07T12:20:38Z,42.805,6.029,13.2981,4.60003,2469.993,2020-7-07T14:21:24Z
2020-07-07T12:23:41Z,42.805,6.029,13.2969,4.59997,2469.97,2020-7-07T14:24:28Z
2020-07-07T12:26:45Z,42.805,6.029,13.2976,4.60018,2469.97,2020-7-07T14:27:31Z
2020-07-07T12:29:48Z,42.805,6.029,13.2974,4.60003,2469.933,2020-7-07T14:30:34Z
2020-07-07T12:32:51Z,42.805,6.029,13.2971,4.60004,2469.993,2020-7-07T14:33:37Z
2020-07-07T12:35:54Z,42.805,6.029,13.2973,4.59997,2469.97,2020-7-07T14:36:41Z
2020-07-07T12:38:58Z,42.805,6.029,13.2991,4.59993,2469.956,2020-7-07T14:39:44Z
2020-07-07T12:42:01Z,42.805,6.029,13.2977,4.60014,2469.993,2020-7-07T14:42:47Z
2020-07-07T12:45:04Z,42.805,6.029,13.3011,4.60006,2470.017,2020-7-07T14:45:50Z
2020-07-07T12:48:07Z,42.805,6.029,13.2978,4.60003,2469.984,2020-7-07T14:48:53Z
2020-07-07T12:51:11Z,42.805,6.029,13.2973,4.60006,2469.97,2020-7-07T14:51:57Z
2020-07-07T12:54:14Z,42.805,6.029,13.2970,4.59991,2469.993,2020-7-07T14:55:00Z
2020-07-07T12:57:17Z,42.805,6.029,13.2968,4.59992,2469.96,2020-7-07T14:58:04Z
2020-07-07T13:00:21Z,42.805,6.029,13.2971,4.59990,2469.947,2020-7-07T15:01:07Z
2020-07-07T13:03:24Z,42.805,6.029,13.2968,4.59992,2469.993,2020-7-07T15:04:10Z
2020-07-07T13:06:27Z,42.805,6.029,13.2973,4.59986,2469.97,2020-7-07T15:07:13Z
2020-07-07T13:09:30Z,42.805,6.029,13.2971,4.59992,2469.937,2020-7-07T15:10:17Z
2020-07-07T13:12:34Z,42.805,6.029,13.2979,4.59993,2469.947,2020-7-07T15:13:20Z
2020-07-07T13:15:37Z,42.805,6.029,13.2976,4.59996,2469.947,2020-7-07T15:16:23Z
2020-07-07T13:18:40Z,42.805,6.029,13.2972,4.59989,2469.909,2020-7-07T15:19:26Z
2020-07-07T13:21:43Z,42.805,6.029,13.2972,4.59979,2469.984,2020-7-07T15:22:29Z
2020-07-07T13:24:47Z,42.805,6.029,13.2972,4.59989,2469.947,2020-7-07T15:25:33Z
2020-07-07T13:27:50Z,42.805,6.029,13.2971,4.59982,2469.984,2020-7-07T15:28:36Z
2020-07-07T13:30:53Z,42.805,6.029,13.2976,4.59985,2469.96,2020-7-07T15:31:39Z
2020-07-07T13:33:56Z,42.805,6.029,13.2974,4.59988,2469.914,2020-7-07T15:34:42Z
2020-07-07T13:36:59Z,42.805,6.029,13.2969,4.59983,2469.96,2020-7-07T15:37:46Z
2020-07-07T13:40:03Z,42.805,6.029,13.2971,4.59980,2469.923,2020-7-07T15:40:49Z
2020-07-07T13:43:06Z,42.805,6.029,13.2969,4.59977,2469.947,2020-7-07T15:43:52Z
2020-07-07T13:46:09Z,42.805,6.029,13.2972,4.59975,2469.947,2020-7-07T15:46:55Z
2020-07-07T13:49:13Z,42.805,6.029,13.2968,4.59976,2469.947,2020-7-07T15:49:59Z
2020-07-07T13:52:16Z,42.805,6.029,13.2974,4.59978,2469.993,2020-7-07T15:53:02Z
2020-07-07T13:55:19Z,42.805,6.029,13.2971,4.59979,2469.923,2020-7-07T15:56:05Z
2020-07-07T13:58:23Z,42.805,6.029,13.2972,4.59979,2469.937,2020-7-07T15:59:09Z
2020-07-07T14:01:26Z,42.805,6.029,13.2970,4.59978,2469.97,2020-7-07T16:02:12Z
2020-07-07T14:04:29Z,42.805,6.029,13.2971,4.59978,2469.937,2020-7-07T16:05:15Z
2020-07-07T14:07:32Z,42.805,6.029,13.2971,4.59980,2469.97,2020-7-07T16:08:18Z
2020-07-07T14:10:35Z,42.805,6.029,13.2971,4.59976,2469.9,2020-7-07T16:11:22Z
2020-07-07T14:13:39Z,42.805,6.029,13.2974,4.59976,2469.947,2020-7-07T16:14:25Z
2020-07-07T14:16:42Z,42.805,6.029,13.2971,4.59976,2469.923,2020-7-07T16:17:28Z
2020-07-07T14:19:45Z,42.805,6.029,13.2974,4.59976,2469.937,2020-7-07T16:20:31Z
2020-07-07T14:22:48Z,42.805,6.029,13.2969,4.59975,2469.923,2020-7-07T16:23:34Z
2020-07-07T14:25:52Z,42.805,6.029,13.2971,4.59974,2469.947,2020-7-07T16:26:38Z
2020-07-07T14:28:55Z,42.805,6.029,13.2974,4.59974,2469.923,2020-7-07T16:29:41Z
2020-07-07T14:31:58Z,42.805,6.029,13.2972,4.59975,2469.937,2020-7-07T16:32:44Z
2020-07-07T14:35:02Z,42.805,6.029,13.2974,4.59975,2469.947,2020-7-07T16:35:48Z
2020-07-07T14:38:05Z,42.805,6.029,13.2972,4.59976,2469.923,2020-7-07T16:38:51Z
2020-07-07T14:41:08Z,42.805,6.029,13.2976,4.59978,2469.923,2020-7-07T16:41:54Z
2020-07-07T14:44:11Z,42.805,6.029,13.2971,4.59976,2469.947,2020-7-07T16:44:57Z
2020-07-07T14:47:14Z,42.805,6.029,13.2970,4.59976,2469.993,2020-7-07T16:48:00Z
2020-07-07T14:50:18Z,42.805,6.029,13.2970,4.59976,2469.923,2020-7-07T16:51:04Z
2020-07-07T14:53:21Z,42.805,6.029,13.2973,4.59976,2469.947,2020-7-07T16:54:07Z
2020-07-07T14:56:24Z,42.805,6.029,13.2979,4.59977,2469.947,2020-7-07T16:57:10Z
2020-07-07T14:59:27Z,42.805,6.029,13.2969,4.59975,2469.923,2020-7-07T17:00:14Z
2020-07-07T15:02:31Z,42.805,6.029,13.2971,4.59975,2469.947,2020-7-07T17:03:17Z
2020-07-07T15:05:34Z,42.805,6.029,13.2971,4.59975,2469.923,2020-7-07T17:06:20Z
2020-07-07T15:08:37Z,42.805,6.029,13.2977,4.59975,2469.923,2020-7-07T17:09:23Z
2020-07-07T15:11:40Z,42.805,6.029,13.2972,4.59976,2469.96,2020-7-07T17:12:26Z